Time,TemperatureF,DewpointF,PressureIn,WindDirection,WindDirectionDegrees,WindSpeedMPH,WindSpeedGustMPH,Humidity,HourlyPrecipIn,Conditions,Clouds,dailyrainin,SoftwareType,DateUTC
2013-08-15 00:02:00,81.6,70.0,29.96,NE,42,1.2,1.2,68,0.00,CLR,,0.00,WeatherDisplay:10.37,2013-08-15 05:02:00,
2013-08-15 00:07:00,81.5,69.9,29.95,ENE,66,1.2,1.2,68,0.00,CLR,,0.00,WeatherDisplay:10.37,2013-08-15 05:07:00,
2013-08-15 00:12:00,81.5,69.9,29.95,NE,48,1.2,1.2,68,0.00,CLR,,0.00,WeatherDisplay:10.37,2013-08-15 05:12:00,
2013-08-15 00:17:00,81.7,69.7,29.95,NE,42,2.3,2.3,67,0.00,CLR,,0.00,WeatherDisplay:10.37,2013-08-15 05:17:00,
2013-08-15 00:22:00,81.7,69.7,29.95,ENE,68,2.3,2.3,67,0.00,CLR,,0.00,WeatherDisplay:10.37,2013-08-15 05:22:00,
2013-08-15 00:27:00,81.7,69.7,29.95,NE,47,3.5,3.5,67,0.00,CLR,,0.00,WeatherDisplay:10.37,2013-08-15 05:27:00,
2013-08-15 00:32:00,81.7,69.7,29.96,ENE,72,1.2,1.2,67,0.00,CLR,,0.00,WeatherDisplay:10.37,2013-08-15 05:32:00,
2013-08-15 00:37:00,81.6,69.6,29.96,NNE,23,2.3,2.3,67,0.00,CLR,,0.00,WeatherDisplay:10.37,2013-08-15 05:37:00,
2013-08-15 00:42:00,81.4,69.8,29.96,NE,38,1.2,1.2,68,0.00,CLR,,0.00,WeatherDisplay:10.37,2013-08-15 05:42:00,
2013-08-15 00:47:00,81.2,69.6,29.96,ENE,78,1.2,1.2,68,0.00,CLR,,0.00,WeatherDisplay:10.37,2013-08-15 05:47:00,
2013-08-15 00:52:00,81.1,70.0,29.96,NE,49,1.2,1.2,69,0.00,CLR,,0.00,WeatherDisplay:10.37,2013-08-15 05:52:00,
2013-08-15 00:57:00,81.0,69.9,29.96,ENE,63,2.3,2.3,69,0.00,CLR,,0.00,WeatherDisplay:10.37,2013-08-15 05:57:00,
2013-08-15 01:02:00,80.8,69.7,29.95,NE,46,2.3,2.3,69,0.00,CLR,,0.00,WeatherDisplay:10.37,2013-08-15 06:02:00,
2013-08-15 01:07:00,80.7,69.6,29.95,ENE,65,1.2,1.2,69,0.00,CLR,,0.00,WeatherDisplay:10.37,2013-08-15 06:07:00,
2013-08-15 01:12:00,80.5,69.4,29.95,North,355,1.2,1.2,69,0.00,CLR,,0.00,WeatherDisplay:10.37,2013-08-15 06:12:00,
2013-08-15 01:17:00,80.4,69.7,29.95,NE,47,0.0,0.1,70,0.00,CLR,,0.00,WeatherDisplay:10.37,2013-08-15 06:17:00,
2013-08-15 01:22:00,80.2,69.5,29.95,NNE,31,0.0,0.0,70,0.00,CLR,,0.00,WeatherDisplay:10.37,2013-08-15 06:22:00,
2013-08-15 01:27:00,80.0,69.7,29.95,NE,49,1.2,1.2,71,0.00,CLR,,0.00,WeatherDisplay:10.37,2013-08-15 06:27:00,
2013-08-15 01:32:00,79.9,69.7,29.95,ENE,58,0.0,0.0,71,0.00,CLR,,0.00,WeatherDisplay:10.37,2013-08-15 06:32:00,
2013-08-15 01:37:00,79.7,69.9,29.94,NNE,32,2.3,2.3,72,0.00,CLR,,0.00,WeatherDisplay:10.37,2013-08-15 06:37:00,
2013-08-15 01:42:00,79.6,69.8,29.95,NE,49,0.0,0.0,72,0.00,CLR,,0.00,WeatherDisplay:10.37,2013-08-15 06:42:00,
2013-08-15 01:47:00,79.5,69.7,29.95,NE,49,3.5,0.0,72,0.00,CLR,,0.00,WeatherDisplay:10.37,2013-08-15 06:47:00,
2013-08-15 01:52:00,79.3,69.9,29.95,ENE,63,1.2,0.0,73,0.00,CLR,,0.00,WeatherDisplay:10.37,2013-08-15 06:52:00,
2013-08-15 01:57:00,79.0,69.6,29.95,ENE,74,0.0,0.0,73,0.00,CLR,,0.00,WeatherDisplay:10.37,2013-08-15 06:57:00,
2013-08-15 02:02:00,78.7,69.7,29.95,ENE,74,0.0,0.0,74,0.00,CLR,,0.00,WeatherDisplay:10.37,2013-08-15 07:02:00,
2013-08-15 02:07:00,78.5,69.5,29.94,East,80,0.0,0.0,74,0.00,CLR,,0.00,WeatherDisplay:10.37,2013-08-15 07:07:00,
2013-08-15 02:12:00,78.4,69.8,29.94,ENE,71,2.3,2.3,75,0.00,CLR,,0.00,WeatherDisplay:10.37,2013-08-15 07:12:00,
2013-08-15 02:17:00,78.3,69.7,29.94,ENE,63,0.0,0.0,75,0.00,CLR,,0.00,WeatherDisplay:10.37,2013-08-15 07:17:00,
2013-08-15 02:22:00,78.2,69.6,29.94,ENE,61,0.0,0.0,75,0.00,CLR,,0.00,WeatherDisplay:10.37,2013-08-15 07:22:00,
2013-08-15 02:27:00,78.1,69.9,29.94,ENE,76,0.0,0.2,76,0.00,CLR,,0.00,WeatherDisplay:10.37,2013-08-15 07:27:00,
2013-08-15 02:32:00,78.0,69.8,29.94,ENE,71,1.2,1.2,76,0.00,CLR,,0.00,WeatherDisplay:10.37,2013-08-15 07:32:00,
2013-08-15 02:37:00,77.9,70.1,29.94,NE,43,1.2,1.2,77,0.00,CLR,,0.00,WeatherDisplay:10.37,2013-08-15 07:37:00,
2013-08-15 02:42:00,77.8,70.0,29.94,NE,43,0.0,0.0,77,0.00,CLR,,0.00,WeatherDisplay:10.37,2013-08-15 07:42:00,
2013-08-15 02:47:00,77.6,70.2,29.94,NNE,32,0.0,0.0,78,0.00,CLR,,0.00,WeatherDisplay:10.37,2013-08-15 07:47:00,
2013-08-15 02:52:00,77.5,70.1,29.94,ENE,61,0.0,0.0,78,0.00,CLR,,0.00,WeatherDisplay:10.37,2013-08-15 07:52:00,
2013-08-15 02:57:00,77.4,70.0,29.93,ENE,60,0.0,0.0,78,0.00,CLR,,0.00,WeatherDisplay:10.37,2013-08-15 07:57:00,
2013-08-15 03:02:00,77.5,70.1,29.93,East,82,2.3,2.3,78,0.00,CLR,,0.00,WeatherDisplay:10.37,2013-08-15 08:02:00,
2013-08-15 03:07:00,77.5,70.1,29.93,East,81,0.0,0.0,78,0.00,CLR,,0.00,WeatherDisplay:10.37,2013-08-15 08:07:00,
2013-08-15 03:12:00,77.4,70.0,29.94,NNE,31,0.0,0.0,78,0.00,CLR,,0.00,WeatherDisplay:10.37,2013-08-15 08:12:00,
2013-08-15 03:17:00,77.4,70.4,29.94,NNE,31,0.0,0.0,79,0.00,CLR,,0.00,WeatherDisplay:10.37,2013-08-15 08:17:00,
2013-08-15 03:22:00,77.2,70.2,29.94,NNE,31,0.0,0.0,79,0.00,CLR,,0.00,WeatherDisplay:10.37,2013-08-15 08:22:00,
2013-08-15 03:27:00,77.1,70.1,29.94,NNE,32,0.0,0.0,79,0.00,CLR,,0.00,WeatherDisplay:10.37,2013-08-15 08:27:00,
2013-08-15 03:32:00,77.0,70.0,29.94,NNE,32,0.0,0.0,79,0.00,CLR,,0.00,WeatherDisplay:10.37,2013-08-15 08:32:00,
2013-08-15 03:37:00,76.9,70.3,29.94,NNE,32,0.0,0.0,80,0.00,CLR,,0.00,WeatherDisplay:10.37,2013-08-15 08:37:00,
2013-08-15 03:42:00,76.9,70.3,29.93,NNE,32,0.0,0.0,80,0.00,CLR,,0.00,WeatherDisplay:10.37,2013-08-15 08:42:00,
2013-08-15 03:47:00,76.8,70.2,29.93,NNE,32,0.0,0.0,80,0.00,CLR,,0.00,WeatherDisplay:10.37,2013-08-15 08:47:00,
2013-08-15 03:52:00,76.8,70.2,29.93,NNE,32,0.0,0.0,80,0.00,CLR,,0.00,WeatherDisplay:10.37,2013-08-15 08:52:00,
2013-08-15 03:57:00,76.8,70.2,29.93,NNE,32,0.0,0.0,80,0.00,CLR,,0.00,WeatherDisplay:10.37,2013-08-15 08:57:00,
2013-08-15 04:02:00,76.8,70.2,29.93,NNE,32,0.0,0.0,80,0.00,CLR,,0.00,WeatherDisplay:10.37,2013-08-15 09:02:00,
2013-08-15 04:07:00,76.7,70.1,29.93,NNE,32,0.0,0.0,80,0.00,CLR,,0.00,WeatherDisplay:10.37,2013-08-15 09:07:00,
2013-08-15 04:12:00,76.7,70.1,29.94,NNE,32,0.0,0.0,80,0.00,CLR,,0.00,WeatherDisplay:10.37,2013-08-15 09:12:00,
2013-08-15 04:17:00,76.5,70.2,29.94,NNE,32,0.0,0.0,81,0.00,CLR,,0.00,WeatherDisplay:10.37,2013-08-15 09:17:00,
2013-08-15 04:22:00,76.3,70.0,29.93,NNE,32,0.0,0.0,81,0.00,CLR,,0.00,WeatherDisplay:10.37,2013-08-15 09:22:00,
2013-08-15 04:27:00,76.1,70.2,29.93,NNE,32,0.0,0.0,82,0.00,CLR,,0.00,WeatherDisplay:10.37,2013-08-15 09:27:00,
2013-08-15 04:32:00,76.0,70.1,29.93,NNE,32,0.0,0.0,82,0.00,CLR,,0.00,WeatherDisplay:10.37,2013-08-15 09:32:00,
2013-08-15 04:37:00,75.9,70.0,29.93,NNE,32,0.0,0.0,82,0.00,CLR,,0.00,WeatherDisplay:10.37,2013-08-15 09:37:00,
2013-08-15 04:42:00,75.9,70.0,29.93,NNE,32,0.0,0.0,82,0.00,CLR,,0.00,WeatherDisplay:10.37,2013-08-15 09:42:00,
2013-08-15 04:47:00,75.9,70.0,29.93,NNE,32,0.0,0.0,82,0.00,CLR,,0.00,WeatherDisplay:10.37,2013-08-15 09:47:00,
2013-08-15 04:52:00,75.8,69.9,29.93,NNE,32,0.0,0.0,82,0.00,CLR,,0.00,WeatherDisplay:10.37,2013-08-15 09:52:00,
2013-08-15 04:57:00,75.7,70.2,29.93,NNE,32,0.0,0.0,83,0.00,CLR,,0.00,WeatherDisplay:10.37,2013-08-15 09:57:00,
2013-08-15 05:02:00,75.9,70.0,29.93,East,87,0.0,0.0,82,0.00,CLR,,0.00,WeatherDisplay:10.37,2013-08-15 10:02:00,
2013-08-15 05:07:00,76.0,70.1,29.93,East,87,0.0,0.0,82,0.00,CLR,,0.00,WeatherDisplay:10.37,2013-08-15 10:07:00,
2013-08-15 05:12:00,76.1,70.2,29.93,ESE,106,1.2,1.2,82,0.00,CLR,,0.00,WeatherDisplay:10.37,2013-08-15 10:12:00,
2013-08-15 05:17:00,76.3,70.0,29.93,ESE,107,0.0,0.0,81,0.00,CLR,,0.00,WeatherDisplay:10.37,2013-08-15 10:17:00,
2013-08-15 05:22:00,76.4,70.1,29.93,ESE,103,0.0,0.0,81,0.00,CLR,,0.00,WeatherDisplay:10.37,2013-08-15 10:22:00,
2013-08-15 05:27:00,76.3,70.0,29.94,ESE,102,0.0,0.0,81,0.00,CLR,,0.00,WeatherDisplay:10.37,2013-08-15 10:27:00,
2013-08-15 05:32:00,76.4,70.1,29.94,ESE,102,0.0,0.0,81,0.00,CLR,,0.00,WeatherDisplay:10.37,2013-08-15 10:32:00,
2013-08-15 05:37:00,76.4,70.1,29.94,ESE,102,0.0,0.0,81,0.00,CLR,,0.00,WeatherDisplay:10.37,2013-08-15 10:37:00,
2013-08-15 05:42:00,76.5,70.2,29.94,ESE,102,0.0,0.0,81,0.00,CLR,,0.00,WeatherDisplay:10.37,2013-08-15 10:42:00,
2013-08-15 05:47:00,76.6,70.3,29.94,ESE,102,1.2,1.2,81,0.00,CLR,,0.00,WeatherDisplay:10.37,2013-08-15 10:47:00,
2013-08-15 05:52:00,76.7,70.4,29.94,ESE,102,0.0,0.0,81,0.00,CLR,,0.00,WeatherDisplay:10.37,2013-08-15 10:52:00,
2013-08-15 05:57:00,76.7,70.4,29.94,ESE,103,0.0,0.0,81,0.00,CLR,,0.00,WeatherDisplay:10.37,2013-08-15 10:57:00,
2013-08-15 06:02:00,76.8,70.5,29.94,ESE,117,0.0,0.0,81,0.00,CLR,,0.00,WeatherDisplay:10.37,2013-08-15 11:02:00,
2013-08-15 06:07:00,76.8,70.5,29.94,SE,136,1.2,1.2,81,0.00,CLR,,0.00,WeatherDisplay:10.37,2013-08-15 11:07:00,
2013-08-15 06:12:00,76.7,70.8,29.94,SSE,152,1.2,1.2,82,0.00,CLR,,0.00,WeatherDisplay:10.37,2013-08-15 11:12:00,
2013-08-15 06:17:00,76.7,70.4,29.94,SSE,149,0.0,0.0,81,0.00,CLR,,0.00,WeatherDisplay:10.37,2013-08-15 11:17:00,
2013-08-15 06:22:00,76.6,70.7,29.94,SE,144,0.0,0.0,82,0.00,CLR,,0.00,WeatherDisplay:10.37,2013-08-15 11:22:00,
2013-08-15 06:27:00,76.6,70.7,29.95,SE,144,0.0,0.0,82,0.00,CLR,,0.00,WeatherDisplay:10.37,2013-08-15 11:27:00,
2013-08-15 06:32:00,76.5,70.6,29.95,SE,144,0.0,0.0,82,0.00,CLR,,0.00,WeatherDisplay:10.37,2013-08-15 11:32:00,
2013-08-15 06:37:00,76.4,70.5,29.95,SE,144,0.0,0.0,82,0.00,CLR,,0.00,WeatherDisplay:10.37,2013-08-15 11:37:00,
2013-08-15 06:42:00,76.3,70.4,29.95,SE,144,0.0,0.0,82,0.00,CLR,,0.00,WeatherDisplay:10.37,2013-08-15 11:42:00,
2013-08-15 06:47:00,76.2,70.7,29.95,SSE,153,0.0,0.0,83,0.00,CLR,,0.00,WeatherDisplay:10.37,2013-08-15 11:47:00,
2013-08-15 06:52:00,76.2,70.7,29.95,SSE,153,0.0,0.0,83,0.00,CLR,,0.00,WeatherDisplay:10.37,2013-08-15 11:52:00,
2013-08-15 06:57:00,76.0,70.5,29.95,SSE,152,0.0,0.0,83,0.00,CLR,,0.00,WeatherDisplay:10.37,2013-08-15 11:57:00,
2013-08-15 07:02:00,75.9,70.4,29.95,SSE,153,0.0,0.0,83,0.00,CLR,,0.00,WeatherDisplay:10.37,2013-08-15 12:02:00,
2013-08-15 07:07:00,75.9,70.4,29.95,SSW,192,0.0,0.0,83,0.00,CLR,,0.00,WeatherDisplay:10.37,2013-08-15 12:07:00,
2013-08-15 07:12:00,75.8,70.3,29.95,SSW,193,0.0,0.0,83,0.00,CLR,,0.00,WeatherDisplay:10.37,2013-08-15 12:12:00,
2013-08-15 07:17:00,75.8,70.6,29.95,SSW,192,0.0,0.0,84,0.00,CLR,,0.00,WeatherDisplay:10.37,2013-08-15 12:17:00,
2013-08-15 07:22:00,75.8,70.6,29.95,SSW,193,0.0,0.0,84,0.00,CLR,,0.00,WeatherDisplay:10.37,2013-08-15 12:22:00,
2013-08-15 07:27:00,75.7,70.5,29.96,SSW,193,0.0,0.0,84,0.00,CLR,,0.00,WeatherDisplay:10.37,2013-08-15 12:27:00,
2013-08-15 07:32:00,75.8,71.0,29.96,SSW,192,0.0,0.0,85,0.00,CLR,,0.00,WeatherDisplay:10.37,2013-08-15 12:32:00,
2013-08-15 07:37:00,75.9,71.1,29.96,SSW,197,1.2,1.2,85,0.00,CLR,,0.00,WeatherDisplay:10.37,2013-08-15 12:37:00,
2013-08-15 07:42:00,76.0,71.2,29.96,SSW,196,0.0,0.0,85,0.00,CLR,,0.00,WeatherDisplay:10.37,2013-08-15 12:42:00,
2013-08-15 07:47:00,76.1,71.3,29.96,SSW,198,0.0,0.0,85,0.00,CLR,,0.00,WeatherDisplay:10.37,2013-08-15 12:47:00,
2013-08-15 07:52:00,76.1,70.9,29.96,SSW,196,0.0,0.0,84,0.00,CLR,,0.00,WeatherDisplay:10.37,2013-08-15 12:52:00,
2013-08-15 07:57:00,76.1,70.9,29.97,SSW,197,0.0,0.0,84,0.00,CLR,,0.00,WeatherDisplay:10.37,2013-08-15 12:57:00,
2013-08-15 08:02:00,76.0,71.2,29.97,SSW,196,0.0,0.0,85,0.00,CLR,,0.00,WeatherDisplay:10.37,2013-08-15 13:02:00,
2013-08-15 08:07:00,76.1,71.3,29.97,SSW,197,0.0,0.0,85,0.00,CLR,,0.00,WeatherDisplay:10.37,2013-08-15 13:07:00,
2013-08-15 08:12:00,76.3,71.5,29.97,SSW,197,0.0,0.0,85,0.00,CLR,,0.00,WeatherDisplay:10.37,2013-08-15 13:12:00,
2013-08-15 08:17:00,76.6,71.7,29.97,SSW,196,0.0,0.0,85,0.00,CLR,,0.00,WeatherDisplay:10.37,2013-08-15 13:17:00,
2013-08-15 08:22:00,76.9,71.7,29.98,SSW,197,0.0,0.0,84,0.00,CLR,,0.00,WeatherDisplay:10.37,2013-08-15 13:22:00,
2013-08-15 08:27:00,77.2,72.0,29.98,SSW,196,0.0,0.0,84,0.00,CLR,,0.00,WeatherDisplay:10.37,2013-08-15 13:27:00,
2013-08-15 08:32:00,78.3,73.1,29.98,South,184,0.0,0.0,84,0.00,CLR,,0.00,WeatherDisplay:10.37,2013-08-15 13:32:00,
2013-08-15 08:37:00,79.0,73.0,29.97,ESE,113,0.0,0.1,82,0.00,CLR,,0.00,WeatherDisplay:10.37,2013-08-15 13:37:00,
2013-08-15 08:42:00,79.2,72.9,29.97,ESE,103,2.3,2.3,81,0.00,CLR,,0.00,WeatherDisplay:10.37,2013-08-15 13:42:00,
2013-08-15 08:47:00,79.0,73.0,29.98,ESE,112,2.3,2.3,82,0.00,CLR,,0.00,WeatherDisplay:10.37,2013-08-15 13:47:00,
2013-08-15 08:52:00,78.9,72.9,29.98,ESE,115,2.3,2.3,82,0.00,CLR,,0.00,WeatherDisplay:10.37,2013-08-15 13:52:00,
2013-08-15 08:57:00,79.0,73.4,29.98,SE,126,1.2,1.2,83,0.00,CLR,,0.00,WeatherDisplay:10.37,2013-08-15 13:57:00,
2013-08-15 09:02:00,79.5,73.2,29.98,ESE,111,2.3,2.3,81,0.00,CLR,,0.00,WeatherDisplay:10.37,2013-08-15 14:02:00,
2013-08-15 09:07:00,79.6,73.3,29.98,SE,136,1.2,1.2,81,0.00,CLR,,0.00,WeatherDisplay:10.37,2013-08-15 14:07:00,
2013-08-15 09:12:00,79.9,73.2,29.98,SE,136,0.0,0.0,80,0.00,CLR,,0.00,WeatherDisplay:10.37,2013-08-15 14:12:00,
2013-08-15 09:17:00,80.7,74.0,29.99,ENE,65,2.3,2.3,80,0.00,CLR,,0.00,WeatherDisplay:10.37,2013-08-15 14:17:00,
2013-08-15 09:22:00,81.3,73.8,29.99,ENE,65,0.0,0.0,78,0.00,CLR,,0.00,WeatherDisplay:10.37,2013-08-15 14:22:00,
2013-08-15 09:27:00,81.4,73.5,29.99,ENE,59,1.2,1.2,77,0.00,CLR,,0.00,WeatherDisplay:10.37,2013-08-15 14:27:00,
2013-08-15 09:32:00,81.5,74.0,29.98,WSW,250,0.0,0.0,78,0.00,CLR,,0.00,WeatherDisplay:10.37,2013-08-15 14:32:00,
2013-08-15 09:37:00,82.5,73.8,29.98,SSE,150,1.0,1.0,75,0.00,CLR,,0.00,WeatherDisplay:10.37,2013-08-15 14:37:00,
2013-08-15 09:42:00,83.0,73.4,29.98,SSE,148,3.5,3.5,73,0.00,CLR,,0.00,WeatherDisplay:10.37,2013-08-15 14:42:00,
2013-08-15 09:47:00,83.5,73.9,29.98,SE,146,3.0,3.0,73,0.00,CLR,,0.00,WeatherDisplay:10.37,2013-08-15 14:47:00,
2013-08-15 09:53:00,84.3,73.0,29.98,SE,127,0.0,0.0,69,0.00,CLR,,0.00,WeatherDisplay:10.37,2013-08-15 14:53:00,
2013-08-15 09:58:00,84.7,73.4,29.98,SE,132,1.2,1.2,69,0.00,CLR,,0.00,WeatherDisplay:10.37,2013-08-15 14:58:00,
2013-08-15 10:03:00,83.9,72.6,29.98,East,96,3.5,3.5,69,0.00,CLR,,0.00,WeatherDisplay:10.37,2013-08-15 15:03:00,
2013-08-15 10:08:00,83.6,72.3,29.97,ESE,112,2.3,2.3,69,0.00,CLR,,0.00,WeatherDisplay:10.37,2013-08-15 15:08:00,
2013-08-15 10:14:00,83.8,72.1,29.98,NE,55,2.3,2.3,68,0.00,CLR,,0.00,WeatherDisplay:10.37,2013-08-15 15:14:00,
2013-08-15 10:19:00,84.1,72.4,29.98,NNE,27,1.2,1.2,68,0.00,CLR,,0.00,WeatherDisplay:10.37,2013-08-15 15:19:00,
2013-08-15 10:24:00,85.2,72.6,29.98,ENE,76,2.3,2.3,66,0.00,CLR,,0.00,WeatherDisplay:10.37,2013-08-15 15:24:00,
2013-08-15 10:29:00,86.5,71.9,29.98,East,92,6.9,6.9,62,0.00,CLR,,0.00,WeatherDisplay:10.37,2013-08-15 15:29:00,
2013-08-15 10:34:00,86.8,72.7,29.98,East,82,2.3,2.3,63,0.00,CLR,,0.00,WeatherDisplay:10.37,2013-08-15 15:34:00,
2013-08-15 10:39:00,87.1,70.5,29.98,East,94,4.6,4.6,58,0.00,CLR,,0.00,WeatherDisplay:10.37,2013-08-15 15:39:00,
2013-08-15 10:44:00,87.5,70.9,29.98,East,84,3.5,3.5,58,0.00,CLR,,0.00,WeatherDisplay:10.37,2013-08-15 15:44:00,
2013-08-15 10:49:00,87.4,69.8,29.98,East,101,2.3,2.3,56,0.00,CLR,,0.00,WeatherDisplay:10.37,2013-08-15 15:49:00,
2013-08-15 10:54:00,88.1,69.9,29.98,West,259,2.3,2.3,55,0.00,CLR,,0.00,WeatherDisplay:10.37,2013-08-15 15:54:00,
2013-08-15 10:59:00,88.4,69.6,29.98,SSW,196,2.3,0.0,54,0.00,CLR,,0.00,WeatherDisplay:10.37,2013-08-15 15:59:00,
2013-08-15 11:04:00,88.8,68.9,29.98,SE,146,3.0,3.0,52,0.00,CLR,,0.00,WeatherDisplay:10.37,2013-08-15 16:04:00,
2013-08-15 11:09:00,88.8,68.9,29.98,WNW,292,2.3,2.3,52,0.00,CLR,,0.00,WeatherDisplay:10.37,2013-08-15 16:09:00,
2013-08-15 11:14:00,89.3,69.4,29.98,East,86,3.5,3.5,52,0.00,CLR,,0.00,WeatherDisplay:10.37,2013-08-15 16:14:00,
2013-08-15 11:19:00,89.5,69.0,29.98,ESE,114,4.0,4.0,51,0.00,CLR,,0.00,WeatherDisplay:10.37,2013-08-15 16:19:00,
2013-08-15 11:25:00,90.0,67.7,29.98,South,169,3.5,3.5,48,0.00,CLR,,0.00,WeatherDisplay:10.37,2013-08-15 16:25:00,
2013-08-15 11:30:00,91.0,68.6,29.98,East,88,2.3,2.3,48,0.00,CLR,,0.00,WeatherDisplay:10.37,2013-08-15 16:30:00,
2013-08-15 11:35:00,91.8,69.9,29.98,ESE,122,2.3,2.3,49,0.00,CLR,,0.00,WeatherDisplay:10.37,2013-08-15 16:35:00,
2013-08-15 11:40:00,92.0,70.1,29.98,East,80,4.6,4.6,49,0.00,CLR,,0.00,WeatherDisplay:10.37,2013-08-15 16:40:00,
2013-08-15 11:45:00,92.0,66.3,29.98,SW,232,5.8,5.8,43,0.00,CLR,,0.00,WeatherDisplay:10.37,2013-08-15 16:45:00,
2013-08-15 11:50:00,91.9,65.5,29.98,ESE,111,3.0,3.0,42,0.00,CLR,,0.00,WeatherDisplay:10.37,2013-08-15 16:50:00,
2013-08-15 11:55:00,91.6,67.3,29.98,NE,42,1.2,1.2,45,0.00,CLR,,0.00,WeatherDisplay:10.37,2013-08-15 16:55:00,
2013-08-15 12:00:00,92.4,66.7,29.98,West,268,3.5,3.5,43,0.00,CLR,,0.00,WeatherDisplay:10.37,2013-08-15 17:00:00,
2013-08-15 12:05:00,92.0,66.3,29.98,WSW,254,3.5,3.5,43,0.00,CLR,,0.00,WeatherDisplay:10.37,2013-08-15 17:05:00,
2013-08-15 12:10:00,91.7,66.0,29.98,WSW,254,2.3,2.3,43,0.00,CLR,,0.00,WeatherDisplay:10.37,2013-08-15 17:10:00,
2013-08-15 12:15:00,91.9,68.8,29.98,NW,312,2.3,2.3,47,0.00,CLR,,0.00,WeatherDisplay:10.37,2013-08-15 17:15:00,
2013-08-15 12:20:00,91.8,67.4,29.97,SSW,192,3.5,3.5,45,0.00,CLR,,0.00,WeatherDisplay:10.37,2013-08-15 17:20:00,
2013-08-15 12:26:00,92.2,68.4,29.97,NW,321,2.3,2.3,46,0.00,CLR,,0.00,WeatherDisplay:10.37,2013-08-15 17:26:00,
2013-08-15 12:31:00,92.6,70.6,29.97,NNW,348,1.2,1.2,49,0.00,CLR,,0.00,WeatherDisplay:10.37,2013-08-15 17:31:00,
2013-08-15 12:36:00,93.0,69.2,29.97,NNE,27,1.2,0.0,46,0.00,CLR,,0.00,WeatherDisplay:10.37,2013-08-15 17:36:00,
2013-08-15 12:42:00,93.2,68.0,29.97,WSW,246,2.3,2.3,44,0.00,CLR,,0.00,WeatherDisplay:10.37,2013-08-15 17:42:00,
2013-08-15 12:47:00,92.9,68.4,29.96,NNW,331,2.3,2.3,45,0.00,CLR,,0.00,WeatherDisplay:10.37,2013-08-15 17:47:00,
2013-08-15 12:52:00,94.4,71.1,29.96,East,79,1.2,1.2,47,0.00,CLR,,0.00,WeatherDisplay:10.37,2013-08-15 17:52:00,
2013-08-15 12:57:00,94.8,68.8,29.96,North,350,1.2,1.2,43,0.00,CLR,,0.00,WeatherDisplay:10.37,2013-08-15 17:57:00,
2013-08-15 13:02:00,94.6,68.6,29.96,East,89,6.9,6.9,43,0.00,CLR,,0.00,WeatherDisplay:10.37,2013-08-15 18:02:00,
2013-08-15 13:07:00,94.8,68.8,29.96,NNE,13,2.3,2.3,43,0.00,CLR,,0.00,WeatherDisplay:10.37,2013-08-15 18:07:00,
2013-08-15 13:12:00,95.1,69.1,29.95,NNE,12,2.0,2.0,43,0.00,CLR,,0.00,WeatherDisplay:10.37,2013-08-15 18:12:00,
2013-08-15 13:18:00,94.9,67.5,29.95,ENE,66,2.3,2.3,41,0.00,CLR,,0.00,WeatherDisplay:10.37,2013-08-15 18:18:00,
2013-08-15 13:23:00,94.9,67.5,29.95,WSW,254,2.3,2.3,41,0.00,CLR,,0.00,WeatherDisplay:10.37,2013-08-15 18:23:00,
2013-08-15 13:29:00,95.2,68.5,29.95,WNW,303,2.3,2.3,42,0.00,CLR,,0.00,WeatherDisplay:10.37,2013-08-15 18:29:00,
2013-08-15 13:34:00,94.9,68.2,29.94,SW,215,3.5,3.5,42,0.00,CLR,,0.00,WeatherDisplay:10.37,2013-08-15 18:34:00,
2013-08-15 13:39:00,95.2,67.8,29.94,SSW,207,3.5,3.5,41,0.00,CLR,,0.00,WeatherDisplay:10.37,2013-08-15 18:39:00,
2013-08-15 13:44:00,95.2,66.3,29.94,SSE,157,1.2,1.2,39,0.00,CLR,,0.00,WeatherDisplay:10.37,2013-08-15 18:44:00,
2013-08-15 13:49:00,95.6,66.7,29.94,WNW,287,3.0,3.0,39,0.00,CLR,,0.00,WeatherDisplay:10.37,2013-08-15 18:49:00,
2013-08-15 13:55:00,95.3,67.9,29.93,SSW,213,1.2,2.1,41,0.00,CLR,,0.00,WeatherDisplay:10.37,2013-08-15 18:55:00,
2013-08-15 14:00:00,95.5,65.9,29.93,SW,226,4.0,4.0,38,0.00,CLR,,0.00,WeatherDisplay:10.37,2013-08-15 19:00:00,
2013-08-15 14:05:00,95.4,66.5,29.93,WSW,238,4.6,4.6,39,0.00,CLR,,0.00,WeatherDisplay:10.37,2013-08-15 19:05:00,
2013-08-15 14:10:00,96.0,67.0,29.93,WSW,238,3.5,3.5,39,0.00,CLR,,0.00,WeatherDisplay:10.37,2013-08-15 19:10:00,
2013-08-15 14:15:00,96.3,67.3,29.92,South,170,3.5,3.5,39,0.00,CLR,,0.00,WeatherDisplay:10.37,2013-08-15 19:15:00,
2013-08-15 14:21:00,96.7,65.4,29.92,WNW,292,3.5,3.5,36,0.00,CLR,,0.00,WeatherDisplay:10.37,2013-08-15 19:21:00,
2013-08-15 14:27:00,96.9,65.5,29.92,WSW,257,6.9,6.9,36,0.00,CLR,,0.00,WeatherDisplay:10.37,2013-08-15 19:27:00,
2013-08-15 14:32:00,96.3,65.0,29.92,NW,307,3.5,3.5,36,0.00,CLR,,0.00,WeatherDisplay:10.37,2013-08-15 19:32:00,
2013-08-15 14:37:00,97.4,67.5,29.91,SSW,199,2.3,2.3,38,0.00,CLR,,0.00,WeatherDisplay:10.37,2013-08-15 19:37:00,
2013-08-15 14:42:00,98.0,66.5,29.91,SSE,167,6.9,6.9,36,0.00,CLR,,0.00,WeatherDisplay:10.37,2013-08-15 19:42:00,
2013-08-15 14:47:00,97.5,67.6,29.91,East,90,6.9,6.9,38,0.00,CLR,,0.00,WeatherDisplay:10.37,2013-08-15 19:47:00,
2013-08-15 14:52:00,97.2,66.6,29.90,East,85,3.5,4.6,37,0.00,CLR,,0.00,WeatherDisplay:10.37,2013-08-15 19:52:00,
2013-08-15 14:57:00,96.8,67.0,29.90,NE,42,6.9,6.9,38,0.00,CLR,,0.00,WeatherDisplay:10.37,2013-08-15 19:57:00,
2013-08-15 15:04:00,97.1,66.5,29.90,East,90,8.1,8.1,37,0.01,RA,,0.01,WeatherDisplay:10.37,2013-08-15 20:04:00,
2013-08-15 15:10:00,96.1,65.6,29.90,WNW,298,2.3,2.3,37,0.01,,,0.01,WeatherDisplay:10.37,2013-08-15 20:10:00,
2013-08-15 15:15:00,96.2,66.5,29.90,WNW,294,3.5,3.5,38,0.01,CLR,,0.01,WeatherDisplay:10.37,2013-08-15 20:15:00,
2013-08-15 15:21:00,96.6,66.1,29.90,SW,222,2.3,2.3,37,0.01,CLR,,0.01,WeatherDisplay:10.37,2013-08-15 20:21:00,
2013-08-15 15:26:00,97.1,67.3,29.90,WSW,250,0.0,0.0,38,0.01,CLR,,0.01,WeatherDisplay:10.37,2013-08-15 20:26:00,
2013-08-15 15:31:00,98.0,66.5,29.90,WSW,244,1.2,1.2,36,0.01,CLR,,0.01,WeatherDisplay:10.37,2013-08-15 20:31:00,
2013-08-15 15:36:00,97.8,64.7,29.90,WSW,256,3.5,3.5,34,0.01,CLR,,0.01,WeatherDisplay:10.37,2013-08-15 20:36:00,
2013-08-15 15:41:00,96.9,64.7,29.89,SW,234,3.5,3.5,35,0.01,CLR,,0.01,WeatherDisplay:10.37,2013-08-15 20:41:00,
2013-08-15 15:46:00,96.8,64.6,29.89,SW,217,5.8,5.8,35,0.01,CLR,,0.01,WeatherDisplay:10.37,2013-08-15 20:46:00,
2013-08-15 15:51:00,97.2,65.0,29.88,WNW,284,3.5,3.5,35,0.01,CLR,,0.01,WeatherDisplay:10.37,2013-08-15 20:51:00,
2013-08-15 15:57:00,97.5,65.2,29.88,West,277,3.5,3.5,35,0.01,CLR,,0.01,WeatherDisplay:10.37,2013-08-15 20:57:00,
2013-08-15 16:02:00,97.9,64.8,29.88,WSW,257,3.5,3.5,34,0.00,CLR,,0.01,WeatherDisplay:10.37,2013-08-15 21:02:00,
2013-08-15 16:07:00,99.4,67.7,29.87,South,175,2.3,2.3,36,0.00,CLR,,0.01,WeatherDisplay:10.37,2013-08-15 21:07:00,
2013-08-15 16:12:00,100.1,64.9,29.87,South,187,3.5,3.5,32,0.00,CLR,,0.01,WeatherDisplay:10.37,2013-08-15 21:12:00,
2013-08-15 16:17:00,99.8,64.7,29.87,ESE,119,5.8,5.8,32,0.00,CLR,,0.01,WeatherDisplay:10.37,2013-08-15 21:17:00,
2013-08-15 16:22:00,99.1,65.0,29.87,South,190,3.5,3.5,33,0.00,CLR,,0.01,WeatherDisplay:10.37,2013-08-15 21:22:00,
2013-08-15 16:27:00,99.3,65.1,29.87,SE,136,3.5,3.5,33,0.00,CLR,,0.01,WeatherDisplay:10.37,2013-08-15 21:27:00,
2013-08-15 16:32:00,98.9,64.8,29.87,SSW,206,3.5,3.5,33,0.00,CLR,,0.01,WeatherDisplay:10.37,2013-08-15 21:32:00,
2013-08-15 16:38:00,98.6,66.2,29.86,SW,223,3.5,3.5,35,0.00,CLR,,0.01,WeatherDisplay:10.37,2013-08-15 21:38:00,
2013-08-15 16:43:00,98.4,64.3,29.86,West,274,3.5,3.5,33,0.00,CLR,,0.01,WeatherDisplay:10.37,2013-08-15 21:43:00,
2013-08-15 16:48:00,97.8,64.7,29.87,SW,218,0.0,0.0,34,0.00,CLR,,0.01,WeatherDisplay:10.37,2013-08-15 21:48:00,
2013-08-15 16:53:00,97.6,65.3,29.87,ESE,115,3.5,3.5,35,0.00,CLR,,0.01,WeatherDisplay:10.37,2013-08-15 21:53:00,
2013-08-15 16:58:00,97.5,65.2,29.86,SE,136,1.2,1.2,35,0.00,CLR,,0.01,WeatherDisplay:10.37,2013-08-15 21:58:00,
2013-08-15 17:04:00,97.6,65.3,29.86,West,272,2.0,2.0,35,0.00,CLR,,0.01,WeatherDisplay:10.37,2013-08-15 22:04:00,
2013-08-15 17:09:00,97.0,64.8,29.86,WSW,250,3.5,3.5,35,0.00,CLR,,0.01,WeatherDisplay:10.37,2013-08-15 22:09:00,
2013-08-15 17:14:00,96.4,64.3,29.86,WSW,240,3.5,3.5,35,0.00,CLR,,0.01,WeatherDisplay:10.37,2013-08-15 22:14:00,
2013-08-15 17:19:00,96.4,65.1,29.86,SW,229,1.2,1.2,36,0.00,CLR,,0.01,WeatherDisplay:10.37,2013-08-15 22:19:00,
2013-08-15 17:24:00,95.9,66.2,29.86,WSW,237,8.1,8.1,38,0.00,CLR,,0.01,WeatherDisplay:10.37,2013-08-15 22:24:00,
2013-08-15 17:29:00,94.1,67.5,29.87,WNW,283,6.9,6.9,42,0.00,CLR,,0.01,WeatherDisplay:10.37,2013-08-15 22:29:00,
2013-08-15 17:34:00,93.2,67.4,29.87,NW,318,8.1,8.1,43,0.00,CLR,,0.01,WeatherDisplay:10.37,2013-08-15 22:34:00,
2013-08-15 17:39:00,92.6,67.5,29.87,WNW,298,8.1,8.1,44,0.00,CLR,,0.01,WeatherDisplay:10.37,2013-08-15 22:39:00,
2013-08-15 17:44:00,92.0,69.5,29.88,West,269,8.1,8.1,48,0.00,CLR,,0.01,WeatherDisplay:10.37,2013-08-15 22:44:00,
2013-08-15 17:49:00,90.4,69.8,29.88,NE,44,11.5,11.5,51,0.00,CLR,,0.01,WeatherDisplay:10.37,2013-08-15 22:49:00,
2013-08-15 17:54:00,89.4,70.0,29.88,ENE,73,3.5,3.5,53,0.00,CLR,,0.01,WeatherDisplay:10.37,2013-08-15 22:54:00,
2013-08-15 17:59:00,88.6,69.3,29.88,SSW,206,6.9,6.9,53,0.00,CLR,,0.01,WeatherDisplay:10.37,2013-08-15 22:59:00,
2013-08-15 18:04:00,88.0,68.7,29.88,West,267,3.5,3.5,53,0.00,CLR,,0.01,WeatherDisplay:10.37,2013-08-15 23:04:00,
2013-08-15 18:09:00,87.8,69.6,29.88,NNE,12,3.5,3.5,55,0.00,CLR,,0.01,WeatherDisplay:10.37,2013-08-15 23:09:00,
2013-08-15 18:14:00,87.5,69.9,29.88,NW,313,2.3,2.3,56,0.00,CLR,,0.01,WeatherDisplay:10.37,2013-08-15 23:14:00,
2013-08-15 18:19:00,87.2,70.1,29.89,NNW,348,4.0,4.0,57,0.00,CLR,,0.01,WeatherDisplay:10.37,2013-08-15 23:19:00,
2013-08-15 18:24:00,86.6,70.6,29.89,ESE,117,2.3,2.3,59,0.00,CLR,,0.01,WeatherDisplay:10.37,2013-08-15 23:24:00,
2013-08-15 18:30:00,86.0,70.0,29.89,NE,36,4.6,4.6,59,0.00,CLR,,0.01,WeatherDisplay:10.37,2013-08-15 23:30:00,
2013-08-15 18:35:00,85.7,69.2,29.89,NNE,27,5.8,5.8,58,0.00,CLR,,0.01,WeatherDisplay:10.37,2013-08-15 23:35:00,
2013-08-15 18:40:00,85.9,66.2,29.89,East,96,3.5,3.5,52,0.00,CLR,,0.01,WeatherDisplay:10.37,2013-08-15 23:40:00,
2013-08-15 18:45:00,86.2,65.9,29.88,NNW,330,3.5,3.5,51,0.00,CLR,,0.01,WeatherDisplay:10.37,2013-08-15 23:45:00,
2013-08-15 18:50:00,86.4,66.1,29.88,East,81,2.3,2.3,51,0.00,CLR,,0.01,WeatherDisplay:10.37,2013-08-15 23:50:00,
2013-08-15 18:55:00,86.8,67.1,29.88,NE,44,3.5,3.5,52,0.00,CLR,,0.01,WeatherDisplay:10.37,2013-08-15 23:55:00,
2013-08-15 19:02:00,87.7,68.4,29.88,SE,125,2.3,2.3,53,0.00,CLR,,0.01,WeatherDisplay:10.37,2013-08-16 00:02:00,
2013-08-15 19:07:00,88.3,69.5,29.88,ENE,71,3.5,3.5,54,0.00,CLR,,0.01,WeatherDisplay:10.37,2013-08-16 00:07:00,
2013-08-15 19:13:00,88.6,69.8,29.88,NE,39,3.5,3.5,54,0.00,CLR,,0.01,WeatherDisplay:10.37,2013-08-16 00:13:00,
2013-08-15 19:18:00,88.6,69.8,29.88,East,101,3.5,3.5,54,0.00,CLR,,0.01,WeatherDisplay:10.37,2013-08-16 00:18:00,
2013-08-15 19:23:00,88.5,69.7,29.89,NE,39,6.9,6.9,54,0.00,CLR,,0.01,WeatherDisplay:10.37,2013-08-16 00:23:00,
2013-08-15 19:28:00,88.4,70.2,29.89,East,86,1.2,1.7,55,0.00,CLR,,0.01,WeatherDisplay:10.37,2013-08-16 00:28:00,
2013-08-15 19:33:00,88.1,69.9,29.90,NE,39,4.6,4.6,55,0.00,CLR,,0.01,WeatherDisplay:10.37,2013-08-16 00:33:00,
2013-08-15 19:38:00,87.9,70.2,29.90,NE,51,2.3,2.3,56,0.00,CLR,,0.01,WeatherDisplay:10.37,2013-08-16 00:38:00,
2013-08-15 19:43:00,87.7,70.1,29.90,NE,52,1.2,1.2,56,0.00,CLR,,0.01,WeatherDisplay:10.37,2013-08-16 00:43:00,
2013-08-15 19:48:00,87.7,70.1,29.90,NE,48,3.5,3.5,56,0.00,CLR,,0.01,WeatherDisplay:10.37,2013-08-16 00:48:00,
2013-08-15 19:53:00,87.6,70.5,29.91,ENE,74,3.0,3.0,57,0.00,CLR,,0.01,WeatherDisplay:10.37,2013-08-16 00:53:00,
2013-08-15 19:58:00,87.3,70.7,29.91,East,80,1.2,1.2,58,0.00,CLR,,0.01,WeatherDisplay:10.37,2013-08-16 00:58:00,
2013-08-15 20:03:00,86.8,70.2,29.91,ENE,57,3.5,3.5,58,0.00,CLR,,0.01,WeatherDisplay:10.37,2013-08-16 01:03:00,
2013-08-15 20:08:00,86.6,70.1,29.91,NE,54,3.5,3.5,58,0.00,CLR,,0.01,WeatherDisplay:10.37,2013-08-16 01:08:00,
2013-08-15 20:13:00,85.9,70.9,29.92,NE,34,3.5,3.5,61,0.00,CLR,,0.01,WeatherDisplay:10.37,2013-08-16 01:13:00,
2013-08-15 20:18:00,85.0,71.5,29.93,East,80,3.5,3.5,64,0.00,CLR,,0.01,WeatherDisplay:10.37,2013-08-16 01:18:00,
2013-08-15 20:23:00,84.0,71.0,29.93,NE,35,8.1,8.1,65,0.00,CLR,,0.01,WeatherDisplay:10.37,2013-08-16 01:23:00,
2013-08-15 20:29:00,83.5,71.4,29.93,NNE,26,1.2,1.2,67,0.00,CLR,,0.01,WeatherDisplay:10.37,2013-08-16 01:29:00,
2013-08-15 20:34:00,83.0,71.3,29.93,WSW,256,2.3,2.3,68,0.00,CLR,,0.01,WeatherDisplay:10.37,2013-08-16 01:34:00,
2013-08-15 20:39:00,82.7,71.5,29.94,NNE,27,2.3,2.3,69,0.00,CLR,,0.01,WeatherDisplay:10.37,2013-08-16 01:39:00,
2013-08-15 20:44:00,82.3,71.5,29.94,ENE,57,3.5,3.5,70,0.00,CLR,,0.01,WeatherDisplay:10.37,2013-08-16 01:44:00,
2013-08-15 20:49:00,82.0,71.7,29.95,NW,325,0.0,0.2,71,0.00,CLR,,0.01,WeatherDisplay:10.37,2013-08-16 01:49:00,
2013-08-15 20:54:00,81.8,71.5,29.95,NE,36,3.5,3.5,71,0.00,CLR,,0.01,WeatherDisplay:10.37,2013-08-16 01:54:00,
2013-08-15 20:59:00,81.7,71.0,29.95,East,80,2.3,2.3,70,0.00,CLR,,0.01,WeatherDisplay:10.37,2013-08-16 01:59:00,
2013-08-15 21:04:00,81.6,70.9,29.96,NE,39,3.5,3.5,70,0.00,CLR,,0.01,WeatherDisplay:10.37,2013-08-16 02:04:00,
2013-08-15 21:09:00,81.7,71.0,29.95,NE,35,2.0,2.0,70,0.00,CLR,,0.01,WeatherDisplay:10.37,2013-08-16 02:09:00,
2013-08-15 21:14:00,81.6,71.3,29.95,NE,55,6.0,6.0,71,0.00,CLR,,0.01,WeatherDisplay:10.37,2013-08-16 02:14:00,
2013-08-15 21:19:00,80.8,71.7,29.95,NNE,27,1.2,1.2,74,0.00,CLR,,0.01,WeatherDisplay:10.37,2013-08-16 02:19:00,
2013-08-15 21:24:00,79.9,71.7,29.96,West,280,2.3,2.3,76,0.00,CLR,,0.01,WeatherDisplay:10.37,2013-08-16 02:24:00,
2013-08-15 21:29:00,79.1,71.6,29.95,SSW,207,2.3,2.3,78,0.00,CLR,,0.01,WeatherDisplay:10.37,2013-08-16 02:29:00,
2013-08-15 21:34:00,78.5,71.4,29.95,North,349,3.5,3.5,79,0.00,CLR,,0.01,WeatherDisplay:10.37,2013-08-16 02:34:00,
2013-08-15 21:39:00,78.1,71.1,29.95,West,276,2.3,2.3,79,0.00,CLR,,0.01,WeatherDisplay:10.37,2013-08-16 02:39:00,
2013-08-15 21:44:00,78.1,71.1,29.96,East,88,1.2,1.2,79,0.00,CLR,,0.01,WeatherDisplay:10.37,2013-08-16 02:44:00,
2013-08-15 21:49:00,78.1,71.1,29.96,East,81,1.2,1.2,79,0.00,CLR,,0.01,WeatherDisplay:10.37,2013-08-16 02:49:00,
2013-08-15 21:54:00,77.9,71.2,29.97,SE,131,1.2,1.2,80,0.00,CLR,,0.01,WeatherDisplay:10.37,2013-08-16 02:54:00,
2013-08-15 21:59:00,77.6,71.3,29.97,WNW,294,2.3,2.3,81,0.00,CLR,,0.01,WeatherDisplay:10.37,2013-08-16 02:59:00,
2013-08-15 22:04:00,77.5,71.2,29.97,NNW,331,1.2,1.2,81,0.00,CLR,,0.01,WeatherDisplay:10.37,2013-08-16 03:04:00,
2013-08-15 22:09:00,77.4,71.1,29.97,NNE,27,2.3,2.3,81,0.00,CLR,,0.01,WeatherDisplay:10.37,2013-08-16 03:09:00,
2013-08-15 22:14:00,77.4,71.5,29.98,NNE,13,0.0,0.0,82,0.00,CLR,,0.01,WeatherDisplay:10.37,2013-08-16 03:14:00,
2013-08-15 22:19:00,77.4,71.5,29.98,ENE,70,3.5,3.5,82,0.00,CLR,,0.01,WeatherDisplay:10.37,2013-08-16 03:19:00,
2013-08-15 22:24:00,77.3,71.4,29.99,ENE,57,2.3,0.0,82,0.00,CLR,,0.01,WeatherDisplay:10.37,2013-08-16 03:24:00,
2013-08-15 22:29:00,77.3,71.7,29.99,ENE,67,2.3,2.3,83,0.00,CLR,,0.01,WeatherDisplay:10.37,2013-08-16 03:29:00,
2013-08-15 22:34:00,77.2,71.6,29.99,NE,39,2.3,2.3,83,0.00,CLR,,0.01,WeatherDisplay:10.37,2013-08-16 03:34:00,
2013-08-15 22:39:00,77.1,71.5,29.99,ENE,57,3.5,3.5,83,0.00,CLR,,0.01,WeatherDisplay:10.37,2013-08-16 03:39:00,
2013-08-15 22:44:00,76.9,71.7,29.99,East,80,1.2,1.2,84,0.00,CLR,,0.01,WeatherDisplay:10.37,2013-08-16 03:44:00,
2013-08-15 22:49:00,76.9,72.0,29.99,NE,49,1.2,1.2,85,0.00,CLR,,0.01,WeatherDisplay:10.37,2013-08-16 03:49:00,
2013-08-15 22:54:00,76.9,72.0,29.99,East,90,1.2,1.2,85,0.00,CLR,,0.01,WeatherDisplay:10.37,2013-08-16 03:54:00,
2013-08-15 22:59:00,76.8,71.9,29.99,East,80,2.0,2.0,85,0.00,CLR,,0.01,WeatherDisplay:10.37,2013-08-16 03:59:00,
2013-08-15 23:01:00,76.8,71.9,29.99,East,96,3.5,3.5,85,0.00,CLR,,0.01,WeatherDisplay:10.37,2013-08-16 04:01:00,
2013-08-15 23:02:00,76.8,71.9,29.99,East,83,3.5,3.5,85,0.00,CLR,,0.01,WeatherDisplay:10.37,2013-08-16 04:02:00,
2013-08-15 23:07:00,76.6,71.7,29.98,East,81,1.2,1.2,85,0.00,CLR,,0.01,WeatherDisplay:10.37,2013-08-16 04:07:00,
2013-08-15 23:12:00,76.4,71.6,29.99,ENE,73,1.2,1.2,85,0.00,CLR,,0.01,WeatherDisplay:10.37,2013-08-16 04:12:00,
2013-08-15 23:17:00,76.4,71.6,29.98,ESE,121,2.3,2.3,85,0.00,CLR,,0.01,WeatherDisplay:10.37,2013-08-16 04:17:00,
2013-08-15 23:22:00,76.4,71.6,29.98,ENE,70,1.2,1.2,85,0.00,CLR,,0.01,WeatherDisplay:10.37,2013-08-16 04:22:00,
2013-08-15 23:27:00,76.4,71.6,29.98,ENE,65,0.0,0.1,85,0.00,CLR,,0.01,WeatherDisplay:10.37,2013-08-16 04:27:00,
2013-08-15 23:32:00,76.4,71.6,29.98,ENE,67,0.0,0.0,85,0.00,CLR,,0.01,WeatherDisplay:10.37,2013-08-16 04:32:00,
2013-08-15 23:37:00,76.4,71.6,29.98,East,98,0.0,0.0,85,0.00,CLR,,0.01,WeatherDisplay:10.37,2013-08-16 04:37:00,
2013-08-15 23:42:00,76.5,71.7,29.99,NE,53,0.0,0.0,85,0.00,CLR,,0.01,WeatherDisplay:10.37,2013-08-16 04:42:00,
2013-08-15 23:47:00,76.6,71.4,29.99,NNE,21,1.2,1.2,84,0.00,CLR,,0.01,WeatherDisplay:10.37,2013-08-16 04:47:00,
2013-08-15 23:52:00,76.7,71.5,29.99,East,86,0.0,0.0,84,0.00,CLR,,0.01,WeatherDisplay:10.37,2013-08-16 04:52:00,
2013-08-15 23:57:00,76.7,71.5,29.99,NE,37,1.2,0.0,84,0.00,CLR,,0.01,WeatherDisplay:10.37,2013-08-16 04:57:00,